Regional Weather Roundup
Issued by NWS

Home | Current Version | Previous Version | Text Only | Print | Product List | Glossary Off
Versions: 1 2 3 4 5 6 7 8 9 10 11 12 13 14 15 16 17 18 19 20 21 22 23 24 25 26 27 28 29 30 31 32 33 34 35 36 37 38 39 40 41 42 43 44 45 46 47 48 49 50

000
ASUS45 KBOU 210407
RWRCO

WEATHER ROUNDUP FOR COLORADO
NATIONAL WEATHER SERVICE DENVER/BOULDER CO
1000 PM MDT SAT SEP 20 2014

NOTE: "FAIR" INDICATES FEW OR NO CLOUDS BELOW 12000 FEET WITH NO
SIGNIFICANT WEATHER AND/OR OBSTRUCTIONS TO VISIBILITY.

COZ001>005-013-030-031-210500-
...NORTHWEST COLORADO...

CITY           SKY/WX    TMP DP  RH WIND       PRES   REMARKS
CRAIG          CLEAR     47  37  68 S5        30.25S
HAYDEN         CLEAR     57  28  33 CALM      30.27S
MEEKER         NOT AVBL
MOUNT WERNER   NOT AVBL
STEAMBOAT SPGS CLEAR     58  36  42 CALM      30.30R
WALDEN         CLEAR     54  36  50 CALM      30.41S
$$

COZ006>008-011-210500-
...WEST CENTRAL VALLEYS...

CITY           SKY/WX    TMP DP  RH WIND       PRES   REMARKS
GRAND JUNCTION MOCLDY    78  40  25 VRB6      30.10R
MONTROSE       PTCLDY    73  43  33 E7        30.20R
EAGLE          MOCLDY    70  39  32 NE7       30.29S
RIFLE          MOCLDY    70  43  37 SE7       30.18R
DELTA          PTCLDY    72  42  34 SE6       30.15S
NUCLA          PTCLDY    70  43  37 E10G18    30.20S
$$

COZ017>023-064>068-210500-
...SOUTHWEST COLORADO...

CITY           SKY/WX    TMP DP  RH WIND       PRES   REMARKS
DURANGO        CLOUDY    71  42  35 CALM      30.24R
CORTEZ         CLEAR     68  49  50 CALM      30.16R
PAGOSA SPRINGS CLOUDY    66  41  40 CALM      30.35R
TELLURIDE      NOT AVBL
WOLF CREEK PAS CLOUDY    48  34  57 NE6       30.67S
$$

COZ009-010-012-014-032>034-037-058>063-210500-
...CENTRAL COLORADO...

CITY           SKY/WX    TMP DP  RH WIND       PRES   REMARKS
ASPEN          CLOUDY    57  50  77 S9        30.38F
BUENA VISTA    MOCLDY    55  48  79 NE6       30.50R
COPPER MTN     PTCLDY    50  36  57 S21G26    30.69F
BERTHOUD PASS  LGT RAIN  36  36 100 E23       30.75S
COTTONWOOD PAS MOCLDY    52  45  76 CALM      30.61R
GUNNISON       MOCLDY    63  43  48 E21G26    30.41R
KREMMLING      PTCLDY    59  37  44 CALM      30.39R
LEADVILLE      MOCLDY    51  38  60 S3        30.56S
MONARCH PASS   RAIN      43  41  93 NE12      30.82R
SALIDA         CLOUDY    62  50  66 NW7       30.54R
SUNLIGHT       CLOUDY    54  37  54 CALM      30.58F
WILKERSON PASS NOT AVBL
$$

COZ069>075-210500-
...SAN LUIS VALLEY/SANGRE DE CRISTO MOUNTAINS...

CITY           SKY/WX    TMP DP  RH WIND       PRES   REMARKS
ALAMOSA        PTCLDY    65  44  46 E20G29    30.36R
LA VETA PASS   PTCLDY    50  41  71 NE20G26   30.58S
SAGUACHE       NOT AVBL
$$

COZ035-036-038>040-210500-
...NORTHERN COLORADO FRONT RANGE...

CITY           SKY/WX    TMP DP  RH WIND       PRES   REMARKS
DENVER INTL AP MOCLDY    63  50  62 S9        30.33R
DMNS CITY PARK   N/A     61  57  86 SW6       30.32F
AURORA         MOCLDY    64  53  66 SW5       30.35R
FRONT RANGE AP MOCLDY    61  52  72 SE7       30.34R
ERIE MUNI ARPT MOCLDY    68  50  51 S6        30.31R
BOULDER MUN AP MOCLDY    66  46  48 W3        30.31S
CENTENNIAL     CLOUDY    60  57  89 S7        30.35F
BROOMFIELD     PTCLDY    70  48  46 S8        30.34S
FORT COLLINS   PTCLDY    64  50  59 SW3       30.31R
LONGMONT       CLOUDY    65  52  63 NW3       30.32R
$$

COZ041-046-047-076>085-087-088-210500-
...PIKES PEAK/PALMER DIVIDE AND SOUTHERN FOOTHILLS...

CITY           SKY/WX    TMP DP  RH WIND       PRES   REMARKS
COLO. SPRINGS  CLOUDY    69  47  45 NW12      30.39R
A. F. ACADEMY  DRIZZLE   65  50  57 N12       30.41R
ELLICOTT       NOT AVBL
FALCON         CLOUDY    63  46  54 N6        30.42S
FORT CARSON    CLOUDY    70  48  45 N8        30.35R
LIMON          MOCLDY    57  46  66 NE5       30.32R
MONUMENT HILL  LGT RAIN  55  52  88 NW6       30.45R
TRINIDAD       CLEAR     67  46  47 S5        30.30R
$$

COZ042>045-048>051-090-091-210500-
...NORTHEAST COLORADO...

CITY           SKY/WX    TMP DP  RH WIND       PRES   REMARKS
GREELEY ARPT   PTCLDY    61  46  59 CALM      30.30R
AKRON          PTCLDY    60  49  66 MISG      30.29R
BURLINGTON     CLEAR     59  47  64 CALM      30.25R
WRAY           MOCLDY    63  51  64 N8        30.23R
STERLING       CLEAR     63  52  67 NE5       30.26R
HOLYOKE        CLEAR     61  46  59 NE5       30.25R
FORT MORGAN    MOCLDY    63  52  68 NE12      30.30R
$$

COZ086-089-092>099-210500-
...SOUTHEAST COLORADO...

CITY           SKY/WX    TMP DP  RH WIND       PRES   REMARKS
PUEBLO         MOCLDY    72  47  40 E9        30.24R
LA JUNTA       CLEAR     70  50  49 E9        30.22R
LAMAR          CLEAR     64  51  62 NE6       30.18R
SPRINGFIELD      N/A     68  55  63 NE10      30.21R
$$



USA.gov is the U.S. government's official web portal to all federal, state and local government web resources and services.